| time (UTC) | temp C | wind direction | speed KPH | gust KPH | rain 1hr cm | rain 24hr cm | rain mn cm | humidity % | barometer mb |
| 20260902173359 | 27 | 90 | 17.7 | 0.0 | 0.00 | 0.00 | 0.00 | 45 | 1016.0 |
| 20260902171900 | 27 | 90 | 17.7 | 0.0 | 0.00 | 0.00 | 0.00 | 45 | 1016.0 |
| 20260902170400 | 27 | 90 | 17.7 | 0.0 | 0.00 | 0.00 | 0.00 | 45 | 1016.0 |
| 20260902165021 | -17 | 0.0 | 0.0 | 0.00 | 0.00 | 0.00 | |||
| 20260902163359 | 30 | 70 | 17.7 | 0.0 | 0.00 | 0.00 | 0.00 | 38 | 1016.0 |
| 20260902161900 | 30 | 70 | 17.7 | 0.0 | 0.00 | 0.00 | 0.00 | 38 | 1016.0 |
| 20260902160410 | 30 | 70 | 17.7 | 0.0 | 0.00 | 0.00 | 0.00 | 38 | 1016.0 |
| 20260902154900 | 31 | 40 | 17.7 | 0.0 | 0.00 | 0.00 | 0.00 | 38 | 1016.0 |
| 20260902153359 | 31 | 40 | 17.7 | 0.0 | 0.00 | 0.00 | 0.00 | 38 | 1016.0 |
| 20260902151859 | 31 | 40 | 17.7 | 0.0 | 0.00 | 0.00 | 0.00 | 38 | 1016.0 |
| 20260902150400 | 31 | 40 | 17.7 | 0.0 | 0.00 | 0.00 | 0.00 | 38 | 1016.0 |
| 20260902144900 | 31 | 340 | 9.7 | 0.0 | 0.00 | 0.00 | 0.00 | 35 | 1017.0 |
| 20260902143400 | 31 | 340 | 9.7 | 0.0 | 0.00 | 0.00 | 0.00 | 35 | 1017.0 |
| 20260902141857 | 31 | 340 | 9.7 | 0.0 | 0.00 | 0.00 | 0.00 | 35 | 1017.0 |
| 20260902140400 | 31 | 340 | 9.7 | 0.0 | 0.00 | 0.00 | 0.00 | 35 | 1017.0 |
| 20260902134900 | 31 | 60 | 14.5 | 0.0 | 0.00 | 0.00 | 0.00 | 35 | 1017.0 |
| 20260902133359 | 31 | 60 | 14.5 | 0.0 | 0.00 | 0.00 | 0.00 | 35 | 1017.0 |
| 20260902131859 | 31 | 60 | 14.5 | 0.0 | 0.00 | 0.00 | 0.00 | 35 | 1017.0 |
| 20260902130400 | -17 | 0.0 | 0.0 | 0.00 | 0.00 | 0.00 | |||
| 20260902124902 | 31 | 90 | 9.7 | 0.0 | 0.00 | 0.00 | 0.00 | 35 | 1018.0 |
| 20260902123400 | 31 | 90 | 9.7 | 0.0 | 0.00 | 0.00 | 0.00 | 35 | 1018.0 |
| 20260902121901 | 31 | 90 | 9.7 | 0.0 | 0.00 | 0.00 | 0.00 | 35 | 1018.0 |
| 20260902120400 | 31 | 90 | 9.7 | 0.0 | 0.00 | 0.00 | 0.00 | 35 | 1018.0 |
| 20260902114859 | 30 | 360 | 14.5 | 0.0 | 0.00 | 0.00 | 0.00 | 38 | 1018.0 |
| 20260902113400 | 30 | 360 | 14.5 | 0.0 | 0.00 | 0.00 | 0.00 | 38 | 1018.0 |
| 20260902111857 | 30 | 360 | 14.5 | 0.0 | 0.00 | 0.00 | 0.00 | 38 | 1018.0 |
| 20260902110400 | 30 | 360 | 14.5 | 0.0 | 0.00 | 0.00 | 0.00 | 38 | 1018.0 |
| 20260902104900 | 30 | 20 | 17.7 | 0.0 | 0.00 | 0.00 | 0.00 | 40 | 1019.0 |
| 20260902103359 | 30 | 20 | 17.7 | 0.0 | 0.00 | 0.00 | 0.00 | 40 | 1019.0 |
| 20260902101900 | 30 | 20 | 17.7 | 0.0 | 0.00 | 0.00 | 0.00 | 40 | 1019.0 |
| 20260902100406 | 30 | 20 | 17.7 | 0.0 | 0.00 | 0.00 | 0.00 | 40 | 1019.0 |
| 20260902094859 | 28 | 100 | 9.7 | 0.0 | 0.00 | 0.00 | 0.00 | 43 | 1019.0 |
| 20260902093359 | 28 | 100 | 9.7 | 0.0 | 0.00 | 0.00 | 0.00 | 43 | 1019.0 |
| 20260902091900 | 28 | 100 | 9.7 | 0.0 | 0.00 | 0.00 | 0.00 | 43 | 1019.0 |
| 20260902090509 | -17 | 0.0 | 0.0 | 0.00 | 0.00 | 0.00 | |||
| 20260902084859 | 27 | 90 | 14.5 | 0.0 | 0.00 | 0.00 | 0.00 | 48 | 1019.0 |
| 20260902083400 | 27 | 90 | 14.5 | 0.0 | 0.00 | 0.00 | 0.00 | 48 | 1019.0 |
| 20260902081900 | 27 | 90 | 14.5 | 0.0 | 0.00 | 0.00 | 0.00 | 48 | 1019.0 |
| 20260902080400 | 27 | 90 | 14.5 | 0.0 | 0.00 | 0.00 | 0.00 | 48 | 1019.0 |
| 20260902074936 | 23 | 30 | 17.7 | 0.0 | 0.00 | 0.00 | 0.00 | 61 | 1019.0 |
| 20260902073400 | 23 | 30 | 17.7 | 0.0 | 0.00 | 0.00 | 0.00 | 61 | 1019.0 |
| 20260902071857 | 23 | 30 | 17.7 | 0.0 | 0.00 | 0.00 | 0.00 | 61 | 1019.0 |
| 20260902070359 | 23 | 30 | 17.7 | 0.0 | 0.00 | 0.00 | 0.00 | 61 | 1019.0 |
| 20260902064857 | 22 | 40 | 17.7 | 0.0 | 0.00 | 0.00 | 0.00 | 69 | 1019.0 |
| 20260902063400 | 22 | 40 | 17.7 | 0.0 | 0.00 | 0.00 | 0.00 | 69 | 1019.0 |
| 20260902061901 | 22 | 40 | 17.7 | 0.0 | 0.00 | 0.00 | 0.00 | 69 | 1019.0 |
| 20260902060400 | 22 | 40 | 17.7 | 0.0 | 0.00 | 0.00 | 0.00 | 69 | 1019.0 |
| 20260902054856 | -17 | 0.0 | 0.0 | 0.00 | 0.00 | 0.00 | |||
| 20260902053400 | -17 | 0.0 | 0.0 | 0.00 | 0.00 | 0.00 | |||
| 20260902051857 | -17 | 0.0 | 0.0 | 0.00 | 0.00 | 0.00 | |||
| 20260902050401 | -17 | 0.0 | 0.0 | 0.00 | 0.00 | 0.00 | |||
| 20260902044857 | 16 | 60 | 9.7 | 0.0 | 0.00 | 0.00 | 0.00 | 88 | 1018.0 |
| 20260902043357 | 16 | 60 | 9.7 | 0.0 | 0.00 | 0.00 | 0.00 | 88 | 1018.0 |
| 20260902041859 | 16 | 60 | 9.7 | 0.0 | 0.00 | 0.00 | 0.00 | 88 | 1018.0 |
| 20260902040404 | 16 | 60 | 9.7 | 0.0 | 0.00 | 0.00 | 0.00 | 88 | 1018.0 |
| 20260902034857 | 16 | 4.8 | 0.0 | 0.00 | 0.00 | 0.00 | 88 | 1018.0 | |
| 20260902033358 | 16 | 4.8 | 0.0 | 0.00 | 0.00 | 0.00 | 88 | 1018.0 | |
| 20260902031856 | 16 | 4.8 | 0.0 | 0.00 | 0.00 | 0.00 | 88 | 1018.0 | |
| 20260902030359 | 16 | 4.8 | 0.0 | 0.00 | 0.00 | 0.00 | 88 | 1018.0 | |
| 20260902024857 | 17 | 4.8 | 0.0 | 0.00 | 0.00 | 0.00 | 83 | 1018.0 | |
| 20260902023356 | 17 | 4.8 | 0.0 | 0.00 | 0.00 | 0.00 | 83 | 1018.0 | |
| 20260902021901 | 17 | 4.8 | 0.0 | 0.00 | 0.00 | 0.00 | 83 | 1018.0 | |
| 20260902020400 | 17 | 4.8 | 0.0 | 0.00 | 0.00 | 0.00 | 83 | 1018.0 | |
| 20260902014859 | 17 | 4.8 | 0.0 | 0.00 | 0.00 | 0.00 | 78 | 1018.0 | |
| 20260902013359 | 17 | 4.8 | 0.0 | 0.00 | 0.00 | 0.00 | 78 | 1018.0 | |
| 20260902011856 | 17 | 4.8 | 0.0 | 0.00 | 0.00 | 0.00 | 78 | 1018.0 | |
| 20260902010359 | 17 | 4.8 | 0.0 | 0.00 | 0.00 | 0.00 | 78 | 1018.0 | |
| 20260902004859 | 17 | 4.8 | 0.0 | 0.00 | 0.00 | 0.00 | 78 | 1018.0 | |
| 20260902003359 | 17 | 4.8 | 0.0 | 0.00 | 0.00 | 0.00 | 78 | 1017.0 | |
| 20260902001857 | 17 | 4.8 | 0.0 | 0.00 | 0.00 | 0.00 | 78 | 1017.0 | |
| 20260902000407 | 17 | 4.8 | 0.0 | 0.00 | 0.00 | 0.00 | 78 | 1017.0 | |
| 20260901234901 | -17 | 0.0 | 0.0 | 0.00 | 0.00 | 0.00 | |||
| 20260901233400 | -17 | 0.0 | 0.0 | 0.00 | 0.00 | 0.00 | |||
| 20260901231900 | -17 | 0.0 | 0.0 | 0.00 | 0.00 | 0.00 | |||
| 20260901230416 | -17 | 0.0 | 0.0 | 0.00 | 0.00 | 0.00 | |||
| 20260901224900 | 18 | 4.8 | 0.0 | 0.00 | 0.00 | 0.00 | 88 | 1017.0 | |
| 20260901223400 | 18 | 4.8 | 0.0 | 0.00 | 0.00 | 0.00 | 88 | 1017.0 | |
| 20260901221859 | 18 | 4.8 | 0.0 | 0.00 | 0.00 | 0.00 | 88 | 1017.0 | |
| 20260901220359 | 18 | 4.8 | 0.0 | 0.00 | 0.00 | 0.00 | 88 | 1017.0 | |
| 20260901214901 | 18 | 4.8 | 0.0 | 0.00 | 0.00 | 0.00 | 88 | 1017.0 | |
| 20260901213513 | -17 | 0.0 | 0.0 | 0.00 | 0.00 | 0.00 | |||
| 20260901211900 | 20 | 130 | 9.7 | 0.0 | 0.00 | 0.00 | 0.00 | 83 | 1016.0 |
| 20260901210429 | 20 | 130 | 9.7 | 0.0 | 0.00 | 0.00 | 0.00 | 83 | 1016.0 |
| 20260901204901 | 21 | 120 | 14.5 | 0.0 | 0.00 | 0.00 | 0.00 | 73 | 1016.0 |
| 20260901203431 | 21 | 120 | 14.5 | 0.0 | 0.00 | 0.00 | 0.00 | 73 | 1016.0 |
| 20260901201900 | 21 | 120 | 14.5 | 0.0 | 0.00 | 0.00 | 0.00 | 73 | 1016.0 |
| 20260901200359 | 21 | 120 | 14.5 | 0.0 | 0.00 | 0.00 | 0.00 | 73 | 1016.0 |
| 20260901195022 | -17 | 0.0 | 0.0 | 0.00 | 0.00 | 0.00 | |||
| 20260901193422 | 22 | 120 | 17.7 | 0.0 | 0.00 | 0.00 | 0.00 | 61 | 1016.0 |
| 20260901191923 | 22 | 120 | 17.7 | 0.0 | 0.00 | 0.00 | 0.00 | 61 | 1016.0 |
| 20260901190414 | 22 | 120 | 17.7 | 0.0 | 0.00 | 0.00 | 0.00 | 61 | 1016.0 |
| 20260901184900 | 25 | 120 | 17.7 | 0.0 | 0.00 | 0.00 | 0.00 | 51 | 1016.0 |
| 20260901183359 | 25 | 120 | 17.7 | 0.0 | 0.00 | 0.00 | 0.00 | 51 | 1016.0 |
| 20260901181900 | 25 | 120 | 17.7 | 0.0 | 0.00 | 0.00 | 0.00 | 51 | 1016.0 |
| 20260901180401 | 25 | 120 | 17.7 | 0.0 | 0.00 | 0.00 | 0.00 | 51 | 1016.0 |
| 20260901174859 | 27 | 120 | 17.7 | 0.0 | 0.00 | 0.00 | 0.00 | 42 | 1015.0 |